Regional Weather Roundup
Issued by NWS

Home | Current Version | Previous Version | Graphics & Text | Print | Product List | Glossary On
Versions: 1 2 3 4 5 6 7 8 9 10 11 12 13 14 15 16 17 18 19 20 21 22 23 24 25 26 27 28 29 30 31 32 33 34 35 36 37 38 39 40 41 42 43 44 45 46 47 48 49 50
000
ASUS43 KLSX 182007
RWRMO

WEATHER SUMMARY FOR MISSOURI
NATIONAL WEATHER SERVICE SPRINGFIELD MO
200 PM CST SAT NOV 18 2017

NOTE: "FAIR" INDICATES FEW OR NO CLOUDS BELOW 12,000 FEET WITH NO
       SIGNIFICANT WEATHER AND/OR OBSTRUCTIONS TO VISIBILITY.
       CURRENT SKY AND/OR WEATHER CONDITIONS ARE NOT AVAILABLE FOR
       CHILLICOTHE AND FARMINGTON.

MOZ001>031-035>038-043-044-053-054-182100-
...NORTHERN AND WESTERN MISSOURI...

CITY           SKY/WX    TMP DP  RH WIND       PRES   REMARKS
KANSAS CTY INT PTSUNNY   49  32  52 NW20G28   29.95R
KANSAS C DTWN  PTSUNNY   50  31  48 NW18G26   29.95R
LEE`S SUMMIT   CLOUDY    47  32  56 NW23G29   29.94R
ST JOSEPH      PTSUNNY   50  32  50 NW25G31   29.97R
CHILLICOTHE      N/A     47  34  60 NW14G28   29.89R
KIRKSVILLE     CLOUDY    44  35  70 NW16G25   29.80R

$$
MOZ066>068-077>081-088>096-101>105-182100-
...SOUTHWEST MISSOURI...

CITY           SKY/WX    TMP DP  RH WIND       PRES   REMARKS
SPRINGFIELD    LGT RAIN  43  41  93 NW13G23   29.91R
JOPLIN         CLOUDY    46  37  71 NW22G31   30.00R
BRANSON        LGT RAIN  45  37  76 NW25G40   29.89R

$$
MOZ032>034-039>042-045>050-055>058-069>072-182100-
...CENTRAL MISSOURI...

CITY           SKY/WX    TMP DP  RH WIND       PRES   REMARKS
COLUMBIA       CLOUDY    44  41  89 NW21G29   29.79R
JEFFERSON CITY LGT RAIN  44  40  85 NW20G26   29.80R
ROLLA          RAIN      40  39  97 NW20G35   29.77R FOG
SEDALIA        CLOUDY    45  40  82 NW20G30   29.88R
WHITEMAN AFB   PTSUNNY   46  36  69 NW15G23   29.85R
WARRENSBURG    CLOUDY    46  34  61 NW17G30   29.92R
OSAGE BEACH    LGT RAIN  43  41  93 NW10      29.86R

$$
MOZ051-052-059>065-182100-
...EAST CENTRAL MISSOURI...

CITY           SKY/WX    TMP DP  RH WIND       PRES   REMARKS
ST LOUIS INTL  RAIN      40  38  93 NW18G31   29.66R FOG
SPIRIT OF STL  RAIN      42  39  89 NW16G29   29.69R FOG
ST CHARLES     RAIN      41  38  89 NW20G26   29.68R FOG

$$
MOZ072>076-082>087-097>100-106>115-182100-
...SOUTH CENTRAL AND SOUTHEAST MISSOURI...

CITY           SKY/WX    TMP DP  RH WIND       PRES   REMARKS
CAPE GIRARDEAU CLOUDY    52  46  80 NW35G49   29.54R
FARMINGTON     LGT RAIN  44  40  85 NW25G35   29.64R
POPLAR BLUFF   PTSUNNY   56  45  66 NW30G40   29.58R
WEST PLAINS    LGT RAIN  47  38  71 NW18G41   29.76R

$$



USA.gov is the U.S. government's official web portal to all federal, state and local government web resources and services.